Stations météo

réclame
Mon MeteoGroup
Wick Airport (AWS), Grande-Bretagne (3075): Température de l'air & dewpoint: 13.12.2018 07:00:00 - 19.12.2018 07:00:00 (GMT)Wick Airport (AWS), Grande-Bretagne (3075): Température de l'air -20cm: 13.12.2018 07:00:00 - 19.12.2018 07:00:00 (GMT)Wick Airport (AWS), Grande-Bretagne (3075): Vitesse du vent & gusts: 13.12.2018 07:00:00 - 19.12.2018 07:00:00 (GMT)Wick Airport (AWS), Grande-Bretagne (3075): Direction du vent: 13.12.2018 07:00:00 - 19.12.2018 07:00:00 (GMT)Wick Airport (AWS), Grande-Bretagne (3075): reduced air pressure: 13.12.2018 07:00:00 - 19.12.2018 07:00:00 (GMT)Wick Airport (AWS), Grande-Bretagne (3075): visibility: 13.12.2018 07:00:00 - 19.12.2018 07:00:00 (GMT)Wick Airport (AWS), Grande-Bretagne (3075): Quantités de précipitations: 13.12.2018 07:00:00 - 19.12.2018 07:00:00 (GMT)
Date & Time tt [°C] td [°C] tt -20cm [°C] ff [km/h] ff [knt] fx [km/h] fx [knt] dd ppp [hPa] vv [km] rr [mm]
19.12.2018 07:00:00 7,2 5,0 - 15 8 - - S 993,5 25 0,0
19.12.2018 06:00:00 7,1 5,5 - 13 7 - - S 993,3 28 0,0
19.12.2018 05:00:00 5,3 4,0 - 9 5 - - WSW 993,2 22 0,0
19.12.2018 04:00:00 7,6 5,7 - 13 7 - - SSE 993,2 22 0,0
19.12.2018 03:00:00 7,6 5,8 - 15 8 - - S 993,2 22 0,0
19.12.2018 02:00:00 7,8 5,9 - 24 13 - - SSE 993,0 21 0,0
19.12.2018 01:00:00 3,2 1,9 - 9 5 - - E 992,9 27 0,0
19.12.2018 00:00:00 8,1 5,8 - 21 11 - - SSE 993,1 26 0,0
18.12.2018 23:00:00 8,3 6,1 - 22 12 - - SSE 993,0 23 0,0
18.12.2018 22:00:00 8,3 6,0 - 21 11 - - SSE 993,1 21 0,0
18.12.2018 21:00:00 8,4 6,2 - 22 12 - - SSE 993,1 19 0,0
18.12.2018 20:00:00 8,7 6,0 - 26 14 - - SSE 993,1 27 0,0
18.12.2018 19:00:00 8,9 6,0 - 31 17 48 26 SSE 992,4 23 0,0
18.12.2018 18:00:00 8,9 6,9 - 26 14 46 25 SSE 992,1 12 0,0
18.12.2018 17:00:00 9,0 7,3 - 28 15 46 25 SSE 991,8 8 0,0
18.12.2018 16:00:00 9,2 7,6 - 28 15 54 29 SSE 991,7 7 0,0
18.12.2018 15:00:00 9,4 7,6 - 37 20 57 31 SSE 991,5 9 0,0
18.12.2018 14:00:00 9,3 7,5 - 41 22 68 37 SE 991,8 8 0,0
18.12.2018 13:00:00 9,4 7,5 - 46 25 78 42 SE 992,2 8 0,0
18.12.2018 12:00:00 9,5 7,4 - 57 31 89 48 SSE 992,0 7 0,2
18.12.2018 11:00:00 9,3 7,5 - 50 27 81 44 SE 992,2 7 0,0
18.12.2018 10:00:00 9,2 7,4 - 44 24 83 45 SE 993,0 4,6 0,0
18.12.2018 09:00:00 9,2 7,4 5,0 42 23 78 42 SE 994,8 9 0,0
18.12.2018 08:00:00 9,3 7,4 - 46 25 72 39 SE 995,9 8 0,0
18.12.2018 07:00:00 9,2 7,3 - 42 23 68 37 SE 996,9 8 0,0
18.12.2018 06:00:00 9,4 7,3 - 41 22 59 32 SE 998,1 10 0,0
18.12.2018 05:00:00 9,1 7,4 - 41 22 59 32 SE 999,2 10 0,0
18.12.2018 04:00:00 8,7 7,5 - 41 22 63 34 SE 999,9 8 0,0
18.12.2018 03:00:00 8,6 7,3 - 44 24 68 37 SE 1000,5 8 0,0
18.12.2018 02:00:00 8,6 7,2 - 34 18 63 34 SE 1001,1 9 0,0
18.12.2018 01:00:00 8,3 6,8 - 37 20 63 34 SE 1001,7 8 0,0
18.12.2018 00:00:00 8,4 6,5 - 44 24 74 40 SE 1002,6 10 0,0
17.12.2018 23:00:00 8,0 6,3 - 39 21 65 35 SE 1003,4 10 0,0
17.12.2018 22:00:00 7,9 5,8 - 46 25 76 41 SSE 1002,9 11 0,0
17.12.2018 21:00:00 7,5 5,4 - 41 22 65 35 SSE 1004,8 12 0,0
17.12.2018 20:00:00 6,8 4,6 - 34 18 59 32 SSE 1005,4 14 0,0
17.12.2018 19:00:00 6,5 4,2 - 41 22 59 32 SSE 1005,4 15 0,0
17.12.2018 18:00:00 6,3 3,8 - 34 18 48 26 SSE 1006,3 25 0,0
17.12.2018 17:00:00 6,5 3,6 - 21 11 - - SSE 1006,5 30 0,0
17.12.2018 16:00:00 6,5 4,0 - 13 7 - - SE 1006,8 35 0,0
17.12.2018 15:00:00 7,0 3,1 - 18 10 - - SSE 1007,1 30 0,0
17.12.2018 14:00:00 6,6 2,8 - 16 9 - - S 1007,2 30 0,0
17.12.2018 13:00:00 6,5 3,3 - 18 10 - - S 1007,4 35 0,0
17.12.2018 12:00:00 6,3 3,4 - 16 9 - - SSE 1007,4 40 0,0
17.12.2018 11:00:00 6,2 3,2 - 16 9 - - S 1007,8 26 0,0
17.12.2018 10:00:00 5,6 3,0 - 13 7 - - S 1007,6 40 0,0
17.12.2018 09:00:00 5,6 3,1 4,9 13 7 - - S 1007,0 35 0,0
17.12.2018 08:00:00 5,2 3,0 - 11 6 - - S 1006,2 40 0,0
17.12.2018 07:00:00 5,4 2,8 - 13 7 - - S 1006,0 50 0,0
17.12.2018 06:00:00 5,6 2,7 - 16 9 - - S 1005,2 50 0,0
17.12.2018 05:00:00 6,3 3,1 - 16 9 - - SSE 1005,0 26 0,0
17.12.2018 04:00:00 5,9 3,0 - 18 10 - - S 1004,6 40 0,0
17.12.2018 03:00:00 6,3 3,6 - 15 8 - - S 1004,4 35 0,0
17.12.2018 02:00:00 6,6 3,7 - 18 10 - - SSE 1003,7 25 0,0
17.12.2018 01:00:00 6,6 3,7 - 18 10 - - SSE 1003,1 35 0,0
17.12.2018 00:00:00 6,6 3,3 - 18 10 74 40 S 1002,6 30 0,0
16.12.2018 23:00:00 6,7 3,0 - 24 13 - - S 1002,0 25 0,0
16.12.2018 22:00:00 6,3 3,0 - 24 13 - - S 1001,8 25 0,0
16.12.2018 21:00:00 6,4 2,3 - 22 12 - - S 1001,5 18 0,0
16.12.2018 20:00:00 6,4 2,4 - 22 12 - - S 1001,1 30 0,2
16.12.2018 19:00:00 6,1 2,5 - 18 10 - - S 1000,4 30 0,0
16.12.2018 18:00:00 5,5 2,9 - 13 7 - - S 999,8 30 0,0
16.12.2018 17:00:00 5,3 2,7 - 16 9 - - S 998,8 45 0,0
16.12.2018 16:00:00 5,4 2,9 - 18 10 - - S 997,9 35 0,0
16.12.2018 15:00:00 5,7 3,1 - 22 12 - - S 996,7 40 0,0
16.12.2018 14:00:00 6,3 3,5 - 18 10 - - SSW 995,6 25 0,0
16.12.2018 13:00:00 6,9 3,5 - 29 16 - - SSW 994,3 50 0,0
16.12.2018 12:00:00 5,3 3,1 - 28 15 - - SW 992,9 50 0,0
16.12.2018 11:00:00 4,5 2,5 - 22 12 - - SW 991,9 40 0,0
16.12.2018 10:00:00 4,0 2,5 - 22 12 - - WSW 990,2 50 0,0
16.12.2018 09:00:00 4,4 2,9 4,9 16 9 - - SW 988,5 50 0,0
16.12.2018 08:00:00 5,8 2,3 - 24 13 - - S 987,1 9 0,0
16.12.2018 07:00:00 6,4 3,5 - 22 12 - - SSE 985,8 11 0,0
16.12.2018 06:00:00 6,7 4,9 - 29 16 76 41 SE 985,5 9 0,0
16.12.2018 05:00:00 6,7 5,4 - 54 29 80 43 SE 986,4 9 0,2
16.12.2018 04:00:00 6,2 5,2 - 48 26 76 41 SE 987,6 3,7 0,2
16.12.2018 03:00:00 5,9 4,5 - 50 27 81 44 SE 988,5 8 0,0
16.12.2018 02:00:00 5,2 3,1 - 55 30 89 48 SE 989,3 14 0,6
16.12.2018 01:00:00 5,0 2,9 - 63 34 98 53 SE 990,2 7 0,0
16.12.2018 00:00:00 5,2 2,6 - 61 33 104 56 SE 990,5 10 0,0
15.12.2018 23:00:00 4,9 2,4 - 67 36 98 53 SE 991,1 10 0,0
15.12.2018 22:00:00 5,1 2,8 - 65 35 96 52 SE 992,2 8 0,0
15.12.2018 21:00:00 5,6 2,9 - 63 34 100 54 SE 992,8 9 0,0
15.12.2018 20:00:00 5,6 2,8 - 57 31 91 49 SE 994,3 8 0,0
15.12.2018 19:00:00 5,6 2,5 - 57 31 96 52 SE 995,4 8 0,0
15.12.2018 18:00:00 5,6 2,4 - 63 34 100 54 SE 996,1 7 0,0
15.12.2018 17:00:00 6,0 1,6 - 54 29 91 49 SE 998,6 9 0,0
15.12.2018 16:00:00 6,2 1,1 - 50 27 85 46 SE 1000,2 9 0,0
15.12.2018 15:00:00 6,1 1,5 - 61 33 89 48 SE 1001,0 10 0,0
15.12.2018 14:00:00 5,9 0,6 - 48 26 83 45 SE 1002,5 10 0,0
15.12.2018 13:00:00 5,9 0,9 - 50 27 87 47 SSE 1004,4 10 0,0
15.12.2018 12:00:00 5,7 0,7 - 46 25 76 41 SE 1005,6 15 0,0
15.12.2018 11:00:00 5,5 0,2 - 48 26 78 42 SSE 1007,7 15 0,0
15.12.2018 10:00:00 5,4 -0,4 - 50 27 91 49 SSE 1009,6 15 0,0
15.12.2018 09:00:00 5,4 -0,8 4,9 55 30 83 45 SSE 1009,8 18 0,0
15.12.2018 08:00:00 5,1 -1,2 - 44 24 80 43 SSE 1009,5 12 0,0
15.12.2018 07:00:00 5,1 -1,8 - 54 29 81 44 SSE 1010,5 22 0,0
15.12.2018 06:00:00 5,2 -2,3 - 46 25 80 43 SSE 1010,9 17 0,0
15.12.2018 05:00:00 5,0 -1,8 - 46 25 80 43 SSE 1012,0 21 0,0
15.12.2018 04:00:00 5,0 -1,6 - 46 25 78 42 SSE 1012,2 18 0,0
15.12.2018 03:00:00 5,1 -1,9 - 52 28 74 40 SSE 1012,3 20 0,0
15.12.2018 02:00:00 5,1 -3,1 - 42 23 76 41 SSE 1013,8 26 0,0
15.12.2018 01:00:00 5,0 -3,4 - 52 28 74 40 SSE 1013,8 27 0,0
15.12.2018 00:00:00 4,9 -3,6 - 44 24 80 43 SSE 1014,6 24 0,0
14.12.2018 23:00:00 5,1 -3,3 - 48 26 74 40 SSE 1015,3 26 0,0
14.12.2018 22:00:00 5,1 -3,5 - 50 27 74 40 SSE 1015,9 35 0,0
14.12.2018 21:00:00 5,1 -3,1 - 42 23 70 38 SSE 1015,9 30 0,0
14.12.2018 20:00:00 5,1 -1,5 - 41 22 81 44 SSE 1015,8 29 0,0
14.12.2018 19:00:00 5,1 -2,2 - 50 27 78 42 SSE 1015,8 35 0,0
14.12.2018 18:00:00 4,9 -2,1 - 44 24 70 38 SSE 1016,3 30 0,0
14.12.2018 17:00:00 5,3 -1,6 - 44 24 76 41 SSE 1016,7 25 0,0
14.12.2018 16:00:00 5,5 -1,0 - 41 22 65 35 SSE 1017,2 30 0,0
14.12.2018 15:00:00 5,5 -0,7 - 39 21 57 31 SE 1017,5 35 0,0
14.12.2018 14:00:00 5,8 -1,4 - 37 20 55 30 SSE 1018,7 24 0,0
14.12.2018 13:00:00 5,5 -0,7 - 35 19 52 28 SSE 1019,4 30 0,0
14.12.2018 12:00:00 5,5 -0,5 - 31 17 59 32 SSE 1019,8 30 0,0
14.12.2018 11:00:00 5,5 0,7 - 34 18 59 32 SSE 1019,9 24 0,0
14.12.2018 10:00:00 5,6 0,3 - 35 19 57 31 SSE 1020,1 29 0,0
14.12.2018 09:00:00 5,5 0,0 5,2 35 19 57 31 SSE 1019,6 26 0,0
14.12.2018 08:00:00 5,4 0,2 - 29 16 48 26 SSE 1019,9 30 0,0
14.12.2018 07:00:00 5,3 -0,2 - 31 17 52 28 SSE 1020,1 35 0,0
14.12.2018 06:00:00 5,4 0,0 - 31 17 57 31 S 1020,3 30 0,0
14.12.2018 05:00:00 5,6 0,2 - 34 18 54 29 SSE 1020,3 40 0,0
14.12.2018 04:00:00 5,9 0,9 - 31 17 57 31 SSE 1020,4 26 0,0
14.12.2018 03:00:00 6,1 1,0 - 39 21 59 32 SSE 1020,4 30 0,0
14.12.2018 02:00:00 6,2 1,7 - 35 19 55 30 SSE 1020,4 22 0,0
14.12.2018 01:00:00 6,3 1,7 - 31 17 57 31 SSE 1020,2 20 0,0
14.12.2018 00:00:00 6,5 1,4 - 34 18 72 39 SSE 1019,9 22 0,0
13.12.2018 23:00:00 6,7 1,5 - 44 24 76 41 SSE 1019,4 21 0,0
13.12.2018 22:00:00 6,7 2,1 - 42 23 65 35 SSE 1019,7 17 0,0
13.12.2018 21:00:00 6,8 1,3 - 41 22 65 35 SSE 1019,7 20 0,0
13.12.2018 20:00:00 6,7 2,1 - 42 23 63 34 SSE 1019,4 17 0,0
13.12.2018 19:00:00 6,6 2,4 - 31 17 63 34 SSE 1019,5 15 0,0
13.12.2018 18:00:00 6,6 1,5 - 42 23 72 39 SSE 1019,1 18 0,0
13.12.2018 17:00:00 6,5 1,8 - 44 24 67 36 SSE 1019,0 18 0,0
13.12.2018 16:00:00 6,5 2,0 - 37 20 67 36 SSE 1018,7 19 0,0
13.12.2018 15:00:00 6,6 1,6 - 37 20 63 34 SSE 1017,8 15 0,0
13.12.2018 14:00:00 6,6 2,6 - 35 19 63 34 SSE 1017,9 16 0,0
13.12.2018 13:00:00 6,7 2,6 - 42 23 80 43 SSE 1017,3 18 0,0
13.12.2018 12:00:00 7,0 2,1 - 46 25 70 38 SSE 1017,1 12 0,0
13.12.2018 11:00:00 6,8 2,2 - 37 20 70 38 SSE 1017,7 16 0,0
13.12.2018 10:00:00 6,9 0,8 - 41 22 65 35 SSE 1017,9 21 0,0
13.12.2018 09:00:00 7,2 1,7 5,2 42 23 68 37 SSE 1017,4 15 0,0
13.12.2018 08:00:00 7,0 1,5 - 42 23 70 38 SSE 1016,9 21 0,0
13.12.2018 07:00:00 7,0 1,8 - 44 24 70 38 SSE 1016,6 14 0,0

tt = Température de l'air
td = dewpoint
tt -20cm = Température de l'air -20cm
ff = Vitesse du vent
fx = gusts
dd = Direction du vent
ppp = reduced air pressure
vv = visibility
rr = Quantités de précipitations

stations d'obs. à proximité